| time (UTC) | temp F | wind direction | speed MPH | gust MPH | rain 1hr in | rain 24hr in | rain mn in | humidity % | barometer mb |
| 20260507141305 | 47 | 154 | 3.0 | 6.0 | 0.00 | 0.07 | 0.00 | 56 | 1011.3 |
| 20260507140805 | 47 | 178 | 5.0 | 7.0 | 0.00 | 0.07 | 0.00 | 56 | 1011.3 |
| 20260507140305 | 46 | 183 | 5.0 | 6.0 | 0.00 | 0.07 | 0.00 | 58 | 1011.3 |
| 20260507135306 | 45 | 184 | 4.0 | 8.0 | 0.00 | 0.07 | 0.00 | 60 | 1011.3 |
| 20260507134804 | 44 | 169 | 6.0 | 8.0 | 0.00 | 0.07 | 0.00 | 60 | 1011.3 |
| 20260507134305 | 44 | 264 | 5.0 | 7.0 | 0.00 | 0.07 | 0.00 | 61 | 1011.3 |
| 20260507131305 | 41 | 185 | 3.0 | 7.0 | 0.00 | 0.07 | 0.00 | 66 | 1011.3 |
| 20260507130805 | 40 | 195 | 3.0 | 8.0 | 0.00 | 0.07 | 0.00 | 66 | 1011.3 |
| 20260507125805 | 39 | 189 | 2.0 | 6.0 | 0.00 | 0.07 | 0.00 | 68 | 1011.3 |
| 20260507125306 | 39 | 190 | 3.0 | 5.0 | 0.00 | 0.07 | 0.00 | 68 | 1011.3 |
| 20260507124805 | 38 | 197 | 3.0 | 6.0 | 0.00 | 0.07 | 0.00 | 68 | 1011.3 |
| 20260507122805 | 37 | 200 | 2.0 | 3.0 | 0.00 | 0.07 | 0.00 | 70 | 1011.3 |
| 20260507121305 | 37 | 185 | 5.0 | 7.0 | 0.00 | 0.07 | 0.00 | 70 | 1011.3 |
| 20260507120804 | 37 | 197 | 2.0 | 7.0 | 0.00 | 0.07 | 0.00 | 70 | 1011.3 |
| 20260507114806 | 37 | 180 | 3.0 | 6.0 | 0.00 | 0.07 | 0.00 | 69 | 1011.3 |
| 20260507114305 | 37 | 182 | 3.0 | 6.0 | 0.00 | 0.07 | 0.00 | 69 | 1011.3 |
| 20260507113304 | 37 | 198 | 5.0 | 9.0 | 0.00 | 0.07 | 0.00 | 68 | 1011.3 |
| 20260507112805 | 37 | 201 | 5.0 | 8.0 | 0.00 | 0.07 | 0.00 | 68 | 1011.3 |
| 20260507112307 | 37 | 192 | 5.0 | 9.0 | 0.00 | 0.07 | 0.00 | 68 | 1011.3 |
| 20260507105805 | 37 | 192 | 7.0 | 14.0 | 0.00 | 0.07 | 0.00 | 69 | 1011.3 |
| 20260507104805 | 36 | 190 | 5.0 | 7.0 | 0.00 | 0.07 | 0.00 | 70 | 1011.3 |
| 20260507104304 | 36 | 202 | 3.0 | 7.0 | 0.00 | 0.07 | 0.00 | 71 | 1011.3 |
| 20260507102306 | 37 | 181 | 5.0 | 8.0 | 0.00 | 0.07 | 0.00 | 69 | 1011.3 |
| 20260507101805 | 37 | 188 | 6.0 | 10.0 | 0.00 | 0.07 | 0.00 | 68 | 1011.3 |
| 20260507095805 | 38 | 185 | 7.0 | 12.0 | 0.00 | 0.07 | 0.00 | 68 | 1011.3 |
| 20260507094805 | 37 | 200 | 5.0 | 10.0 | 0.00 | 0.07 | 0.00 | 68 | 1011.3 |
| 20260507094305 | 37 | 172 | 6.0 | 10.0 | 0.00 | 0.07 | 0.00 | 70 | 1011.3 |
| 20260507092307 | 37 | 217 | 4.0 | 7.0 | 0.00 | 0.07 | 0.00 | 71 | 1011.3 |
| 20260507091805 | 37 | 211 | 5.0 | 8.0 | 0.00 | 0.07 | 0.00 | 71 | 1011.3 |
| 20260507090805 | 37 | 181 | 6.0 | 10.0 | 0.00 | 0.07 | 0.00 | 72 | 1011.3 |
| 20260507085805 | 36 | 188 | 6.0 | 12.0 | 0.00 | 0.07 | 0.00 | 73 | 1011.3 |
| 20260507085306 | 36 | 187 | 6.0 | 10.0 | 0.00 | 0.07 | 0.00 | 74 | 1011.3 |
| 20260507084805 | 36 | 197 | 5.0 | 10.0 | 0.00 | 0.08 | 0.00 | 75 | 1011.3 |
| 20260507083305 | 35 | 186 | 6.0 | 10.0 | 0.00 | 0.08 | 0.00 | 77 | 1011.3 |
| 20260507082805 | 35 | 194 | 5.0 | 9.0 | 0.00 | 0.08 | 0.00 | 78 | 1011.3 |
| 20260507082306 | 35 | 181 | 5.0 | 9.0 | 0.00 | 0.08 | 0.00 | 78 | 1011.3 |
| 20260507081306 | 35 | 193 | 5.0 | 7.0 | 0.00 | 0.08 | 0.00 | 79 | 1011.3 |
| 20260507080805 | 35 | 182 | 4.0 | 8.0 | 0.00 | 0.08 | 0.00 | 79 | 1011.3 |
| 20260507075805 | 35 | 187 | 5.0 | 8.0 | 0.00 | 0.08 | 0.00 | 79 | 1011.3 |
| 20260507073805 | 35 | 189 | 5.0 | 10.0 | 0.00 | 0.09 | 0.00 | 80 | 1011.3 |
| 20260507073305 | 35 | 185 | 6.0 | 9.0 | 0.00 | 0.09 | 0.00 | 80 | 1011.3 |
| 20260507071805 | 35 | 184 | 6.0 | 12.0 | 0.00 | 0.10 | 0.00 | 82 | 1011.3 |
| 20260507071304 | 35 | 179 | 5.0 | 9.0 | 0.00 | 0.11 | 0.00 | 83 | 1011.3 |
| 20260507064805 | 34 | 182 | 4.0 | 7.0 | 0.00 | 0.12 | 0.00 | 84 | 1011.8 |
| 20260507064305 | 35 | 178 | 5.0 | 8.0 | 0.00 | 0.12 | 0.00 | 84 | 1011.8 |
| 20260507063804 | 35 | 182 | 5.0 | 8.0 | 0.00 | 0.12 | 0.00 | 84 | 1011.8 |
| 20260507063305 | 35 | 174 | 5.0 | 8.0 | 0.00 | 0.13 | 0.00 | 84 | 1011.8 |
| 20260507062805 | 35 | 185 | 5.0 | 8.0 | 0.00 | 0.13 | 0.00 | 84 | 1011.8 |
| 20260507062306 | 35 | 183 | 5.0 | 8.0 | 0.00 | 0.13 | 0.00 | 84 | 1011.8 |
| 20260507061305 | 35 | 200 | 5.0 | 7.0 | 0.00 | 0.13 | 0.00 | 85 | 1011.8 |
| 20260507060816 | 35 | 189 | 4.0 | 7.0 | 0.00 | 0.13 | 0.00 | 85 | 1011.8 |
| 20260507052804 | 32 | 182 | 4.0 | 7.0 | 0.00 | 0.14 | 0.13 | 91 | 1011.8 |
| 20260507052306 | 32 | 191 | 2.0 | 3.0 | 0.00 | 0.14 | 0.13 | 91 | 1011.8 |
| 20260507051305 | 32 | 176 | 2.0 | 3.0 | 0.00 | 0.16 | 0.13 | 91 | 1011.8 |
| 20260507045804 | 31 | 176 | 0.0 | 0.0 | 0.00 | 0.17 | 0.13 | 91 | 1011.8 |
| 20260507045306 | 31 | 176 | 0.0 | 1.0 | 0.00 | 0.17 | 0.13 | 90 | 1011.8 |
| 20260507044805 | 32 | 176 | 0.0 | 1.0 | 0.00 | 0.18 | 0.13 | 90 | 1011.8 |
| 20260507043805 | 32 | 176 | 0.0 | 0.0 | 0.00 | 0.18 | 0.13 | 90 | 1011.8 |
| 20260507043304 | 32 | 176 | 0.0 | 0.0 | 0.00 | 0.18 | 0.13 | 90 | 1011.8 |
| 20260507042307 | 33 | 176 | 1.0 | 2.0 | 0.00 | 0.19 | 0.13 | 90 | 1011.8 |
| 20260507041305 | 33 | 176 | 1.0 | 2.0 | 0.00 | 0.20 | 0.13 | 90 | 1011.8 |
| 20260507040305 | 32 | 176 | 1.0 | 2.0 | 0.00 | 0.20 | 0.13 | 89 | 1011.8 |
| 20260507035306 | 33 | 176 | 0.0 | 0.0 | 0.00 | 0.21 | 0.13 | 89 | 1011.8 |
| 20260507034304 | 33 | 176 | 0.0 | 0.0 | 0.00 | 0.22 | 0.13 | 88 | 1011.8 |
| 20260507032306 | 33 | 176 | 0.0 | 1.0 | 0.00 | 0.23 | 0.13 | 86 | 1011.8 |
| 20260507031305 | 34 | 176 | 0.0 | 0.0 | 0.00 | 0.23 | 0.13 | 85 | 1011.8 |
| 20260507030804 | 34 | 176 | 0.0 | 0.0 | 0.00 | 0.23 | 0.13 | 85 | 1011.8 |
| 20260507025306 | 35 | 176 | 0.0 | 0.0 | 0.00 | 0.24 | 0.13 | 82 | 1011.8 |
| 20260507023305 | 36 | 166 | 0.0 | 2.0 | 0.00 | 0.26 | 0.13 | 79 | 1011.8 |
| 20260507022804 | 36 | 166 | 1.0 | 2.0 | 0.00 | 0.26 | 0.13 | 78 | 1011.8 |
| 20260507022306 | 36 | 166 | 0.0 | 2.0 | 0.00 | 0.27 | 0.13 | 78 | 1011.8 |
| 20260507020805 | 37 | 166 | 1.0 | 3.0 | 0.00 | 0.31 | 0.13 | 75 | 1011.8 |
| 20260507020304 | 38 | 166 | 1.0 | 3.0 | 0.00 | 0.33 | 0.13 | 74 | 1011.8 |
| 20260507015306 | 38 | 157 | 2.0 | 5.0 | 0.00 | 0.37 | 0.13 | 73 | 1011.8 |
| 20260507014805 | 39 | 170 | 2.0 | 6.0 | 0.00 | 0.38 | 0.13 | 73 | 1011.8 |
| 20260507013305 | 39 | 172 | 4.0 | 7.0 | 0.00 | 0.41 | 0.13 | 71 | 1015.7 |
| 20260507012306 | 40 | 175 | 5.0 | 7.0 | 0.00 | 0.41 | 0.13 | 71 | 1015.7 |
| 20260507011305 | 40 | 142 | 4.0 | 6.0 | 0.00 | 0.41 | 0.13 | 69 | 1015.7 |
| 20260507010805 | 40 | 160 | 3.0 | 8.0 | 0.00 | 0.41 | 0.13 | 69 | 1015.7 |
| 20260507005805 | 40 | 171 | 5.0 | 9.0 | 0.00 | 0.41 | 0.13 | 68 | 1015.7 |
| 20260507005306 | 40 | 157 | 2.0 | 6.0 | 0.00 | 0.42 | 0.13 | 68 | 1015.7 |
| 20260507004304 | 40 | 152 | 6.0 | 9.0 | 0.00 | 0.42 | 0.13 | 68 | 1015.7 |
| 20260507003805 | 40 | 156 | 2.0 | 8.0 | 0.00 | 0.42 | 0.13 | 68 | 1015.7 |
| 20260507002805 | 40 | 174 | 6.0 | 12.0 | 0.00 | 0.42 | 0.13 | 69 | 1015.7 |
| 20260507002306 | 41 | 166 | 6.0 | 9.0 | 0.00 | 0.42 | 0.13 | 69 | 1015.7 |
| 20260507001805 | 41 | 157 | 3.0 | 6.0 | 0.00 | 0.42 | 0.13 | 69 | 1015.7 |
| 20260507001304 | 41 | 162 | 5.0 | 8.0 | 0.00 | 0.42 | 0.13 | 69 | 1015.7 |
| 20260507000804 | 41 | 182 | 7.0 | 9.0 | 0.00 | 0.42 | 0.13 | 68 | 1015.7 |
| 20260506235805 | 40 | 171 | 4.0 | 6.0 | 0.00 | 0.42 | 0.13 | 68 | 1015.7 |
| 20260506235306 | 40 | 184 | 4.0 | 7.0 | 0.00 | 0.42 | 0.13 | 68 | 1015.7 |
| 20260506234304 | 40 | 130 | 4.0 | 7.0 | 0.00 | 0.42 | 0.13 | 71 | 1015.7 |
| 20260506233804 | 40 | 190 | 4.0 | 10.0 | 0.00 | 0.42 | 0.13 | 69 | 1015.7 |
| 20260506233305 | 40 | 173 | 6.0 | 9.0 | 0.00 | 0.42 | 0.13 | 69 | 1015.7 |
| 20260506232805 | 41 | 229 | 4.0 | 7.0 | 0.00 | 0.42 | 0.13 | 70 | 1015.7 |
| 20260506231805 | 40 | 225 | 2.0 | 8.0 | 0.00 | 0.42 | 0.13 | 68 | 1015.7 |
| 20260506230805 | 41 | 173 | 5.0 | 9.0 | 0.00 | 0.42 | 0.13 | 71 | 1015.7 |
| 20260506225305 | 40 | 184 | 5.0 | 7.0 | 0.00 | 0.42 | 0.13 | 73 | 1015.7 |
| 20260506224305 | 39 | 147 | 5.0 | 8.0 | 0.00 | 0.43 | 0.13 | 73 | 1015.7 |
| 20260506223806 | 40 | 167 | 7.0 | 9.0 | 0.00 | 0.44 | 0.13 | 73 | 1015.7 |
| 20260506222306 | 39 | 221 | 3.0 | 7.0 | 0.00 | 0.44 | 0.13 | 74 | 1015.7 |
| 20260506220304 | 38 | 211 | 1.0 | 3.0 | 0.00 | 0.45 | 0.13 | 80 | 1015.7 |
| 20260506215805 | 38 | 170 | 1.0 | 5.0 | 0.00 | 0.45 | 0.13 | 80 | 1015.7 |
| 20260506215306 | 37 | 220 | 3.0 | 5.0 | 0.00 | 0.45 | 0.13 | 80 | 1015.7 |
| 20260506213805 | 38 | 160 | 3.0 | 7.0 | 0.00 | 0.47 | 0.13 | 82 | 1015.7 |
| 20260506213305 | 37 | 184 | 0.0 | 2.0 | 0.00 | 0.47 | 0.13 | 82 | 1015.7 |
| 20260506205306 | 35 | 184 | 2.0 | 3.0 | 0.00 | 0.51 | 0.13 | 83 | 1015.7 |
| 20260506204304 | 35 | 200 | 1.0 | 3.0 | 0.00 | 0.51 | 0.13 | 84 | 1015.7 |
| 20260506203305 | 35 | 136 | 2.0 | 6.0 | 0.00 | 0.51 | 0.13 | 84 | 1015.7 |
| 20260506202804 | 35 | 189 | 2.0 | 3.0 | 0.00 | 0.52 | 0.13 | 84 | 1015.7 |
| 20260506202306 | 35 | 225 | 2.0 | 3.0 | 0.00 | 0.52 | 0.13 | 81 | 1015.7 |
| 20260506201805 | 36 | 315 | 1.0 | 3.0 | 0.00 | 0.52 | 0.13 | 83 | 1015.7 |
| 20260506200804 | 35 | 319 | 1.0 | 2.0 | 0.00 | 0.53 | 0.13 | 83 | 1015.7 |
| 20260506193305 | 34 | 5 | 2.0 | 5.0 | 0.00 | 0.53 | 0.13 | 88 | 1015.7 |
| 20260506192306 | 34 | 350 | 1.0 | 5.0 | 0.00 | 0.53 | 0.13 | 86 | 1015.7 |
| 20260506191805 | 35 | 325 | 1.0 | 5.0 | 0.00 | 0.53 | 0.13 | 87 | 1015.7 |
| 20260506190805 | 34 | 226 | 1.0 | 3.0 | 0.00 | 0.53 | 0.13 | 87 | 1015.7 |
| 20260506185804 | 35 | 271 | 0.0 | 3.0 | 0.00 | 0.53 | 0.13 | 88 | 1015.7 |
| 20260506185307 | 35 | 289 | 3.0 | 6.0 | 0.00 | 0.53 | 0.13 | 88 | 1015.7 |
| 20260506184805 | 35 | 26 | 3.0 | 5.0 | 0.00 | 0.53 | 0.13 | 88 | 1015.7 |
| 20260506183804 | 34 | 346 | 3.0 | 5.0 | 0.01 | 0.53 | 0.13 | 88 | 1015.7 |
| 20260506183304 | 34 | 346 | 1.0 | 3.0 | 0.01 | 0.53 | 0.13 | 89 | 1015.7 |
| 20260506182306 | 34 | 348 | 3.0 | 7.0 | 0.01 | 0.53 | 0.13 | 90 | 1015.7 |
| 20260506181805 | 34 | 338 | 3.0 | 7.0 | 0.01 | 0.53 | 0.13 | 90 | 1015.7 |
| 20260506181304 | 33 | 336 | 4.0 | 6.0 | 0.01 | 0.54 | 0.13 | 91 | 1015.7 |
| 20260506180805 | 33 | 336 | 2.0 | 5.0 | 0.02 | 0.54 | 0.13 | 91 | 1015.7 |
| 20260506180305 | 34 | 336 | 2.0 | 6.0 | 0.02 | 0.54 | 0.13 | 91 | 1015.7 |
| 20260506174805 | 33 | 336 | 2.0 | 5.0 | 0.02 | 0.54 | 0.13 | 91 | 1015.4 |
| 20260506173304 | 33 | 336 | 1.0 | 6.0 | 0.02 | 0.54 | 0.12 | 92 | 1011.5 |
| 20260506172804 | 32 | 336 | 2.0 | 7.0 | 0.02 | 0.55 | 0.12 | 92 | 1011.5 |
| 20260506171805 | 32 | 18 | 5.0 | 8.0 | 0.02 | 0.55 | 0.12 | 92 | 1011.5 |
| 20260506171305 | 32 | 4 | 5.0 | 10.0 | 0.02 | 0.55 | 0.12 | 93 | 1011.5 |
| 20260506170804 | 32 | 25 | 4.0 | 9.0 | 0.02 | 0.54 | 0.11 | 92 | 1011.5 |
| 20260506163805 | 31 | 1 | 6.0 | 12.0 | 0.03 | 0.55 | 0.11 | 93 | 1011.5 |
| 20260506162804 | 31 | 353 | 7.0 | 13.0 | 0.02 | 0.55 | 0.10 | 93 | 1011.5 |
| 20260506161304 | 32 | 10 | 7.0 | 16.0 | 0.03 | 0.55 | 0.10 | 94 | 1011.5 |
| 20260506160805 | 32 | 13 | 6.0 | 14.0 | 0.02 | 0.54 | 0.09 | 94 | 1011.5 |
| 20260506155306 | 32 | 344 | 7.0 | 12.0 | 0.03 | 0.55 | 0.09 | 94 | 1011.5 |
| 20260506154804 | 33 | 341 | 5.0 | 10.0 | 0.03 | 0.55 | 0.09 | 94 | 1011.5 |
| 20260506154305 | 33 | 334 | 7.0 | 12.0 | 0.02 | 0.54 | 0.08 | 94 | 1011.5 |
| 20260506153304 | 32 | 337 | 5.0 | 13.0 | 0.02 | 0.54 | 0.08 | 94 | 1011.5 |
| 20260506152804 | 32 | 338 | 8.0 | 12.0 | 0.02 | 0.54 | 0.08 | 94 | 1011.5 |
| 20260506152306 | 32 | 331 | 9.0 | 13.0 | 0.02 | 0.54 | 0.08 | 94 | 1011.5 |
| 20260506151805 | 32 | 354 | 5.0 | 9.0 | 0.01 | 0.53 | 0.07 | 95 | 1011.5 |
| 20260506150305 | 32 | 351 | 0.0 | 0.0 | 0.00 | 0.52 | 0.06 | 95 | 1011.5 |
| 20260506145806 | 32 | 330 | 0.0 | 0.0 | 0.00 | 0.53 | 0.06 | 95 | 1011.5 |
| 20260506145306 | 32 | 5 | 0.0 | 0.0 | 0.00 | 0.53 | 0.06 | 95 | 1011.5 |
| 20260506144305 | 32 | 350 | 0.0 | 0.0 | 0.00 | 0.53 | 0.06 | 95 | 1011.5 |
| 20260506143305 | 32 | 346 | 0.0 | 0.0 | 0.00 | 0.54 | 0.06 | 95 | 1011.5 |
| 20260506142805 | 32 | 331 | 0.0 | 0.0 | 0.00 | 0.54 | 0.06 | 95 | 1011.5 |